Starlink 5983

operational
NORAD ID: 57224 Int'l Des: 2023-094 Owner: SPXS Country: US Constellation: starlink
LEOCIRCULAR

Über Starlink 5983

Beschreibung wird geladen...

Live-Position

3D-Globus wird geladen...

Nächste Überflüge

Höhenverlauf

Altitude vs Time

uPlot chart will show altitude changes over time

Zweizeiliger Elementsatz

1 57224U 23094G 25354.02255043 .00001802 00000-0 14840-3 0 9999
2 57224 43.0029 103.4179 0001212 271.8640 88.2063 15.02544650135131
Epoch: 20. Dez. 2025 • Age: 10 hours

Aktueller Status

Höhe 562.3 km
Geschwindigkeit 7.58 km/s
Subsatellitenpunkt -17.14°S, 45.6°E
Startdatum 7. Juli 2023
Alter 2.4 years
Typ internet

Technische Details

Klassifizierung Payload
Masse 305.00 kg
Trockenmasse 290.00 kg
Gesamtmasse 305.00 kg
Länge 0.20 m
Durchmesser 2.80 m
Spannweite 9.00 m
Form Box + pan
Hersteller SPXS
Bus-Typ Starlink
Phasenstatus In Orbit
Besitzer/Staat SPXS/US

Große Konstellationen

Loading constellations...